Regional Weather Roundup
Issued by NWS

Home | Current Version | Previous Version | Graphics & Text | Print | Product List | Glossary On
Versions: 1 2 3 4 5 6 7 8 9 10 11 12 13 14 15 16 17 18 19 20 21 22 23 24 25 26 27 28 29 30 31 32 33 34 35 36 37 38 39 40 41 42 43 44 45 46 47 48 49 50
000
ASUS43 KIND 021759
RWRIN

WEATHER ROUNDUP FOR INDIANA
NATIONAL WEATHER SERVICE INDIANAPOLIS IN
200 PM EDT TUE JUN 02 2015

NOTE: "FAIR" INDICATES FEW OR NO CLOUDS BELOW 12,000 FEET WITH NO
SIGNIFICANT WEATHER AND/OR OBSTRUCTIONS TO VISIBILITY.

* - STATION DOES NOT REPORT WEATHER SUCH AS PRECIPITATION OR FOG.

+ - STATION NOT QUALITY CONTROLLED BY THE NATIONAL WEATHER SERVICE.
    USE DATA WITH CAUTION...ESPECIALLY DEWPOINT AND RELATIVE
    HUMIDITY OBSERVATIONS.

INZ001>003-010>013-019-020-021900-
NORTHWEST INDIANA

CITY           SKY/WX    TMP DP  RH WIND       PRES   REMARKS
GARY /AIRPORT/ MOSUNNY   66  50  55 NE10      30.17F
RENSSELAER +   SUNNY     66  54  63 NE9       30.15F

$$

LMZ046-743>745-021900-
SOUTHERN LAKE MICHIGAN

STATION/POSITION TIME  TEMP    WIND        PRES    WAVE
                       AIR SEA DIR/SP/G            HT
                 (UTC) (F)     (DEG/KT/KT) (MB)    (FT)
BURNS HARBOR     1700           30/  9/ 10 1022.0F
MICHIGAN CITY    1700   55     350/ 10/ 11   N/A
5NW MICH CITY    1700   53 56   10/  8/ 10   N/A     1

$$

INZ004-005-014>016-021>024-021900-
NORTH CENTRAL INDIANA

CITY           SKY/WX    TMP DP  RH WIND       PRES   REMARKS
ELKHART        MOSUNNY   66  48  52 E6        30.17F
GOSHEN         MOSUNNY   70  51  51 E7        30.16F
6HR MIN TEMP:  50; 6HR MAX TEMP:  70;

PERU/GRISSOM   PTSUNNY   66  53  62 E12       30.14F
6HR MIN TEMP:  52; 6HR MAX TEMP:  66;

SOUTH BEND     SUNNY     68  47  46 E10G17    30.16F
6HR MIN TEMP:  53; 6HR MAX TEMP:  68;


$$

INZ006>009-017-018-025>027-021900-
NORTHEAST INDIANA

CITY           SKY/WX    TMP DP  RH WIND       PRES   REMARKS
ANGOLA *+      MOSUNNY   68  59  73 SE10      30.17F
FORT WAYNE     CLOUDY    64  52  64 E15G22    30.18S
6HR MIN TEMP:  52; 6HR MAX TEMP:  65;


$$

INZ028-029-035-036-043>045-051>053-021900-
WEST CENTRAL INDIANA

CITY           SKY/WX    TMP DP  RH WIND       PRES   REMARKS
CRAWFORDSVL +  PTSUNNY   65  48  54 E12       30.14F
6HR MIN TEMP:  50; 6HR MAX TEMP:  65;

GREENCASTLE +  MOSUNNY   68  50  52 SE7       30.13F
LAFAYETTE      MOSUNNY   66  52  60 E9        30.14F
6HR MIN TEMP:  52; 6HR MAX TEMP:  67;

TERRE HAUTE    MOSUNNY   70  56  61 E8        30.12F
6HR MIN TEMP:  54; 6HR MAX TEMP:  70;


$$

INZ030>032-037>040-046>048-054>057-064-065-021900-
CENTRAL INDIANA

CITY           SKY/WX    TMP DP  RH WIND       PRES   REMARKS
ANDERSON       CLOUDY    59  46  63 E8        30.18S
GREENWOOD *+   MOSUNNY   64  52  63 E7        30.15F
INDIANAPOLIS   MOSUNNY   66  51  58 NE9       30.12F
6HR MIN TEMP:  52; 6HR MAX TEMP:  67;

-EAGLE CREEK   MOSUNNY   67  53  61 NE6       30.13F
6HR MIN TEMP:  52; 6HR MAX TEMP:  67;

KOKOMO *+      CLOUDY    64  54  68 E12G18    30.16S
6HR MIN TEMP:  52; 6HR MAX TEMP:  64;

MT COMFORT *+  PTSUNNY   63  46  55 E9G16     30.15F
SHELBYVILLE    CLOUDY    63  53  70 E14       30.14F
6HR MIN TEMP:  54; 6HR MAX TEMP:  64;


$$

INZ033-034-041-042-049-050-058-059-021900-
EAST CENTRAL INDIANA

CITY           SKY/WX    TMP DP  RH WIND       PRES   REMARKS
MUNCIE         CLOUDY    59  51  75 E12       30.17F
6HR MIN TEMP:  51; 6HR MAX TEMP:  59;


$$

INZ060-061-067>069-081>083-085>088-021900-
SOUTHWEST INDIANA

CITY           SKY/WX    TMP DP  RH WIND       PRES   REMARKS
EVANSVILLE     CLOUDY    63  55  75 NE6       30.12F HAZE
6HR MIN TEMP:  58; 6HR MAX TEMP:  63;

HUNTINGBURG *+ CLOUDY    63  54  72 N7        30.12F
6HR MIN TEMP:  55; 6HR MAX TEMP:  63;


$$

INZ062-063-066-070>080-084-089>092-021900-
SOUTH CENTRAL AND SOUTHEAST INDIANA

CITY           SKY/WX    TMP DP  RH WIND       PRES   REMARKS
BLOOMINGTON    SUNNY     68  52  56 NE7       30.11F
6HR MIN TEMP:  54; 6HR MAX TEMP:  68;

MADISON *+     CLOUDY    61  50  67 E3        30.15F
SEYMOUR +      CLOUDY    64  52  63 NE9       30.13F

$$



USA.gov is the U.S. government's official web portal to all federal, state and local government web resources and services.